Change the Weather History Date:

Monday, February 25, 2013

  Actual Average (KMGW) Record (KMGW)
Temperature  
Mean Temperature 27 °F 36 °F  
Max Temperature 35 °F 46 °F 74 °F (2000)
Min Temperature 19 °F 27 °F -1 °F (1967)
Degree Days  
Heating Degree Days 38 29  
Month to date heating degree days 778  
Since 1 July heating degree days 3805  
Cooling Degree Days 0 0  
Month to date cooling degree days 0  
Year to date cooling degree days 0  
Moisture  
Dew Point 20 °F    
Average Humidity 75    
Maximum Humidity 100    
Minimum Humidity 52    
Precipitation  
Precipitation 0.00 in 0.10 in 0.59 in (1979)
Month to date precipitation 2.30  
Year to date precipitation 5.11  
Sea Level Pressure  
Sea Level Pressure 30.04 in    
Wind  
Wind Speed 6 mph (East)    
Max Wind Speed 20 mph    
Max Gust Speed 25 mph    
Visibility 10 miles    
Events      
T = Trace of Precipitation, MM = Missing Value Source: NWS Daily Summary

Daily Weather History Graph

Daily Weather History Graph

Search for Another Location

Airport or City:

Trip Planner

Search our weather history database for the weather conditions in past years. The results will help you decide how hot, cold, wet, or windy it might be!

Date:

Astronomy

Feb. 25, 2013 Rise Set
Actual Time 6:55 AM EST 6:05 PM EST
Civil Twilight 6:28 AM EST 6:32 PM EST
Nautical Twilight 5:57 AM EST 7:03 PM EST
Astronomical Twilight 5:26 AM EST 7:35 PM EST
Moon 6:16 PM EST (2/25) 6:25 AM EST (2/25)
Length of Visible Light 12h 03m
Length of Day
11h 09m
Full, 100% of the Moon is Illuminated
Feb 25
Full
Feb 25
Full
Mar 4
Last Quarter
Mar 11
New
Mar 19
First Quarter

Hourly Weather History & Observations

Time (EST) Temp. Windchill Dew Point Humidity Pressure Visibility Wind Dir Wind Speed Gust Speed Precip Events Conditions
12:15 AM 21.2 °F 10.9 °F 21.2 °F 100% 30.01 in 7.0 mi WNW 9.2 mph - N/A   Overcast
12:35 AM 21.2 °F 12.6 °F 21.2 °F 100% 30.01 in 7.0 mi WNW 6.9 mph - N/A   Overcast
12:55 AM 21.2 °F 12.6 °F 21.2 °F 100% 30.01 in 10.0 mi WNW 6.9 mph - N/A   Overcast
1:15 AM 21.2 °F 16.4 °F 21.2 °F 100% 30.02 in 10.0 mi WNW 3.5 mph - N/A   Overcast
1:55 AM 21.2 °F 16.4 °F 21.2 °F 100% 30.02 in 10.0 mi NW 3.5 mph - N/A   Mostly Cloudy
2:15 AM 21.2 °F 16.4 °F 21.2 °F 100% 30.02 in 10.0 mi NW 3.5 mph - N/A   Overcast
2:55 AM 21.2 °F 16.4 °F 21.2 °F 100% 30.02 in 10.0 mi NW 3.5 mph - N/A   Overcast
3:15 AM 21.2 °F 14.9 °F 21.2 °F 100% 30.02 in 10.0 mi NW 4.6 mph - N/A   Overcast
3:35 AM 21.2 °F 14.9 °F 21.2 °F 100% 30.02 in 10.0 mi NW 4.6 mph - N/A   Overcast
4:00 AM 21.2 °F 16.4 °F 21.2 °F 100% 30.02 in 10.0 mi WNW 3.5 mph - N/A   Overcast
4:20 AM 21.2 °F 16.4 °F 21.2 °F 100% 30.01 in 10.0 mi NW 3.5 mph - N/A   Overcast
4:40 AM 21.2 °F 16.4 °F 21.2 °F 100% 30.01 in 10.0 mi NNW 3.5 mph - N/A   Overcast
5:00 AM 21.2 °F 16.4 °F 21.2 °F 100% 30.02 in 7.0 mi North 3.5 mph - N/A   Overcast
5:20 AM 21.2 °F - 21.2 °F 100% 30.03 in 10.0 mi Calm Calm - N/A   Overcast
5:40 AM 21.2 °F 16.4 °F 21.2 °F 100% 30.05 in 10.0 mi WNW 3.5 mph - N/A   Overcast
5:55 AM 21.2 °F - 21.2 °F 100% 30.05 in 10.0 mi Calm Calm - N/A   Overcast
6:20 AM 21.2 °F 14.9 °F 21.2 °F 100% 30.05 in 10.0 mi North 4.6 mph - N/A   Overcast
7:00 AM 21.2 °F - 21.2 °F 100% 30.06 in 10.0 mi Calm Calm - N/A   Mostly Cloudy
7:20 AM 19.4 °F - 19.4 °F 100% 30.06 in 7.0 mi Calm Calm - N/A   Scattered Clouds
8:00 AM 21.2 °F - 21.2 °F 100% 30.08 in 10.0 mi Calm Calm - N/A   Scattered Clouds
8:20 AM 21.2 °F 16.4 °F 21.2 °F 100% 30.08 in 10.0 mi NNE 3.5 mph - N/A   Overcast
8:40 AM 23.0 °F 17.0 °F 21.2 °F 93% 30.08 in 10.0 mi North 4.6 mph - N/A   Overcast
9:00 AM 23.0 °F 17.0 °F 19.4 °F 86% 30.08 in 10.0 mi North 4.6 mph - N/A   Mostly Cloudy
9:20 AM 24.8 °F 17.9 °F 21.2 °F 86% 30.08 in 10.0 mi NNE 5.8 mph - N/A   Mostly Cloudy
9:40 AM 26.6 °F 21.2 °F 19.4 °F 74% 30.08 in 10.0 mi North 4.6 mph - N/A   Mostly Cloudy
10:00 AM 26.6 °F 21.2 °F 21.2 °F 80% 30.08 in 10.0 mi North 4.6 mph - N/A   Scattered Clouds
10:20 AM 26.6 °F 22.6 °F 19.4 °F 74% 30.09 in 10.0 mi NE 3.5 mph - N/A   Clear
10:40 AM 26.6 °F 22.6 °F 19.4 °F 74% 30.09 in 10.0 mi NNE 3.5 mph - N/A   Clear
11:00 AM 28.4 °F - 19.4 °F 69% 30.09 in 10.0 mi Calm Calm - N/A   Clear
11:20 AM 28.4 °F - 21.2 °F 74% 30.09 in 10.0 mi Calm Calm - N/A   Clear
11:40 AM 30.2 °F - 19.4 °F 64% 30.08 in 10.0 mi Calm Calm - N/A   Clear
12:00 PM 32.0 °F 27.5 °F 19.4 °F 60% 30.08 in 10.0 mi East 4.6 mph - N/A   Clear
12:20 PM 32.0 °F 27.5 °F 19.4 °F 60% 30.08 in 10.0 mi NNE 4.6 mph - N/A   Clear
12:40 PM 32.0 °F 28.7 °F 21.2 °F 64% 30.07 in 10.0 mi ENE 3.5 mph - N/A   Clear
1:00 PM 32.0 °F 28.7 °F 23.0 °F 69% 30.06 in 10.0 mi East 3.5 mph - N/A   Clear
1:20 PM 33.8 °F - 21.2 °F 60% 30.05 in 10.0 mi Calm Calm - N/A   Clear
1:40 PM 33.8 °F 27.7 °F 23.0 °F 65% 30.04 in 10.0 mi East 6.9 mph - N/A   Clear
2:00 PM 35.6 °F 29.9 °F 23.0 °F 60% 30.04 in 10.0 mi SE 6.9 mph - N/A   Clear
2:20 PM 35.6 °F 31.7 °F 19.4 °F 52% 30.03 in 10.0 mi East 4.6 mph - N/A   Clear
2:40 PM 35.6 °F 31.7 °F 21.2 °F 56% 30.03 in 10.0 mi East 4.6 mph - N/A   Clear
3:00 PM 35.6 °F 30.7 °F 19.4 °F 52% 30.04 in 10.0 mi SE 5.8 mph - N/A   Clear
3:20 PM 35.6 °F 30.7 °F 19.4 °F 52% 30.04 in 10.0 mi SE 5.8 mph - N/A   Clear
3:40 PM 35.6 °F 29.2 °F 19.4 °F 52% 30.04 in 10.0 mi SE 8.1 mph - N/A   Clear
4:00 PM 35.6 °F 31.7 °F 19.4 °F 52% 30.03 in 10.0 mi SE 4.6 mph - N/A   Clear
4:20 PM 35.6 °F 29.2 °F 19.4 °F 52% 30.04 in 10.0 mi ESE 8.1 mph - N/A   Clear
4:40 PM 33.8 °F 29.6 °F 17.6 °F 52% 30.03 in 10.0 mi ESE 4.6 mph - N/A   Clear
5:00 PM 33.8 °F 26.4 °F 17.6 °F 52% 30.03 in 10.0 mi ESE 9.2 mph - N/A   Clear
5:20 PM 33.8 °F 25.8 °F 17.6 °F 52% 30.03 in 10.0 mi ESE 10.4 mph - N/A   Clear
5:40 PM 32.0 °F 24.8 °F 17.6 °F 55% 30.04 in 10.0 mi ESE 8.1 mph - N/A   Clear
6:00 PM 32.0 °F 23.0 °F 17.6 °F 55% 30.04 in 10.0 mi ESE 11.5 mph - N/A   Clear
6:20 PM 32.0 °F 24.2 °F 17.6 °F 55% 30.03 in 10.0 mi ESE 9.2 mph - N/A   Clear
6:40 PM 30.2 °F 21.3 °F 17.6 °F 60% 30.04 in 10.0 mi ESE 10.4 mph - N/A   Clear
7:00 PM 30.2 °F 21.3 °F 17.6 °F 60% 30.05 in 10.0 mi SE 10.4 mph - N/A   Clear
7:20 PM 30.2 °F 21.3 °F 17.6 °F 60% 30.04 in 10.0 mi ESE 10.4 mph - N/A   Clear
7:40 PM 30.2 °F 20.2 °F 17.6 °F 60% 30.04 in 10.0 mi ESE 12.7 mph - N/A   Clear
8:00 PM 30.2 °F 19.3 °F 17.6 °F 60% 30.04 in 10.0 mi ESE 15.0 mph - N/A   Clear
8:20 PM 30.2 °F 18.9 °F 17.6 °F 60% 30.04 in 10.0 mi ESE 16.1 mph 23.0 mph N/A   Clear
8:40 PM 30.2 °F 18.9 °F 17.6 °F 60% 30.03 in 10.0 mi SE 16.1 mph 23.0 mph N/A   Clear
9:00 PM 30.2 °F 19.3 °F 19.4 °F 64% 30.03 in 10.0 mi SE 15.0 mph 18.4 mph N/A   Clear
9:20 PM 28.4 °F 16.6 °F 17.6 °F 64% 30.03 in 10.0 mi SE 16.1 mph - N/A   Clear
9:40 PM 28.4 °F 16.2 °F 17.6 °F 64% 30.02 in 10.0 mi ESE 17.3 mph - N/A   Clear
10:00 PM 28.4 °F 15.8 °F 17.6 °F 64% 30.01 in 10.0 mi SE 18.4 mph 24.2 mph N/A   Clear
10:20 PM 28.4 °F 15.4 °F 19.4 °F 69% 29.99 in 10.0 mi SE 19.6 mph 25.3 mph N/A   Clear
11:00 PM 28.4 °F 15.4 °F 19.4 °F 69% 30.01 in 10.0 mi SE 19.6 mph - N/A   Clear
11:20 PM 28.4 °F 15.4 °F 19.4 °F 69% 30.01 in 10.0 mi SE 19.6 mph 24.2 mph N/A   Clear
11:40 PM 28.4 °F 15.4 °F 19.4 °F 69% 29.99 in 10.0 mi SE 19.6 mph - N/A   Clear